Location: Bethera
(33.2010°N, 79.7880°W)
Time: 20:22:03
(UTC-04:00)

Amateur Radio Satellites - All Passes

Search period start: 29 May 2015 19:52
Search period end: 30 May 2015 19:52
Location: Bethera, 33.2010°N, 79.7880°W

Satellite Date Start Highest point End Downlink Frequencies (MHz)
Time Altitude Azimuth
GOMX 1 29 May 19:56:07 19:59:31 18° 68° (ENE) 20:03:14 467.674
CANX-2 29 May 20:04:28 20:05:05 10° 68° (ENE) 20:05:58 2200.000
BRITE-PL 29 May 20:07:21 20:12:01 37° 72° (ENE) 20:17:03 437.365/2234.400
CUTE 1.7 + AOD 2 29 May 20:07:57 20:08:10 10° 68° (ENE) 20:08:39 437.475
HO-68 29 May 20:08:52 20:14:36 28° 65° (ENE) 20:20:33 435.675
AIST 1 29 May 20:16:11 20:19:41 26° 91° (E) 20:23:16
AIST 2 29 May 20:18:52 20:19:32 10° 314° (NW) 20:19:59 435.215
SEEDS 29 May 20:24:02 20:25:57 13° 70° (ENE) 20:28:05 437.485
CUBESAT XI-V 29 May 20:31:10 20:35:04 26° 288° (WNW) 20:38:53 437.345
COMPASS 1 29 May 20:32:27 20:34:19 13° 69° (ENE) 20:36:22 437.405
PRISM 29 May 20:36:29 20:40:29 46° 286° (WNW) 20:44:29 437.425
DOVE 4 29 May 20:41:01 20:45:33 33° 72° (ENE) 20:50:18 437.250
AAUSAT CUBESAT 2 29 May 20:41:39 20:43:48 14° 70° (ENE) 20:46:08 437.432
M-CUBED/EXP-1 PRIME 29 May 20:46:03 20:49:20 65° 105° (ESE) 20:52:43 437.505
RS-15 29 May 20:49:52 20:58:55 24° 255° (WSW) 21:07:28 29.354- 29.394
AUBIESAT-1 29 May 20:51:17 20:54:35 64° 107° (ESE) 20:57:58 437.475
Cosmos 2504 29 May 21:02:48 21:09:13 36° 76° (ENE) 21:15:49 435.465 / 435.565
UWE-3 29 May 21:12:25 21:14:03 12° 68° (ENE) 21:15:58 435.000/436.395/437.385
STRAND 1 29 May 21:24:45 21:28:46 23° 291° (WNW) 21:32:38 437.568
GOMX 1 29 May 21:32:17 21:37:14 47° 262° (W) 21:42:26 467.674
CINEMA 3 29 May 21:33:31 21:38:23 57° 75° (ENE) 21:43:20 145.822/145.860
CANX-2 29 May 21:36:26 21:40:36 54° 260° (W) 21:44:46 2200.000
CUTE 1.7 + AOD 2 29 May 21:39:29 21:43:40 55° 260° (W) 21:47:51 437.475
BRITE-PL 29 May 21:46:41 21:50:41 22° 269° (W) 21:54:43 437.365/2234.400
Cosmos 2491 29 May 21:48:19 21:54:16 18° 294° (WNW) 21:59:43 435.465 / 435.565
UKube-1 29 May 21:53:02 21:53:10 10° 67° (ENE) 21:53:36 .
ZACube-1 29 May 21:53:43 21:57:33 27° 72° (ENE) 22:01:26 437.345
AIST 1 29 May 21:54:17 21:57:22 19° 285° (WNW) 22:00:19
HO-68 29 May 21:55:08 22:02:03 49° 260° (W) 22:08:56 435.675
SEEDS 29 May 21:57:27 22:01:27 40° 262° (W) 22:05:25 437.485
Oscar 11 29 May 21:58:43 22:02:57 55° 76° (ENE) 22:07:12 145.826/435.025
DX 1 29 May 22:03:52 22:06:24 16° 69° (ENE) 22:09:08 434.975-435.025
CUBEBUG 2 29 May 22:04:40 22:09:21 60° 76° (ENE) 22:14:04 437.445
COMPASS 1 29 May 22:05:43 22:09:40 40° 262° (W) 22:13:37 437.405
ISS 29 May 22:06:41 22:09:47 46° 133° (SE) 22:12:55 145.825
AAUSAT CUBESAT 2 29 May 22:15:16 22:19:09 36° 262° (W) 22:22:59 437.432
DOVE 4 29 May 22:19:09 22:23:20 24° 267° (W) 22:27:30 437.250
DELFI C3 29 May 22:21:28 22:25:28 75° 77° (ENE) 22:29:30 145.870
VELOX 1 29 May 22:30:09 22:32:35 15° 69° (ENE) 22:35:15 145.980
UWE-3 29 May 22:45:32 22:50:09 58° 260° (W) 22:54:46 435.000/436.395/437.385
ESTCUBE 1 29 May 22:45:48 22:47:43 13° 68° (ENE) 22:49:53 437.505/2401.250
FUNcube-1 29 May 22:47:09 22:51:44 73° 259° (W) 22:56:18 145.935
Cosmos 2504 29 May 22:56:16 23:02:29 32° 271° (W) 23:08:37 435.465 / 435.565
HUMSAT D 29 May 22:57:47 23:02:04 65° 76° (ENE) 23:06:20 437.325/437.525
AISAT 29 May 23:01:11 23:05:13 36° 73° (ENE) 23:09:20 437.250
ANTELSAT 29 May 23:08:03 23:11:22 22° 94° (E) 23:14:45 437.575/2403.000
50 SAT 29 May 23:10:42 23:14:33 48° 76° (ENE) 23:18:24 437.505
CINEMA 3 29 May 23:13:32 23:15:59 13° 270° (W) 23:18:07 145.822/145.860
VERMONT LUNAR 29 May 23:24:34 23:26:37 16° 143° (SE) 23:28:45 437.305
UKube-1 29 May 23:24:36 23:28:52 59° 260° (W) 23:33:09 .
QB50P1 29 May 23:25:23 23:27:38 14° 92° (E) 23:30:06 145.935-145.965
POLYITAN 1 29 May 23:28:52 23:31:28 16° 93° (E) 23:34:15 437.675
ZACube-1 29 May 23:30:09 23:33:52 23° 265° (W) 23:37:27 437.345
DX 1 29 May 23:38:21 23:42:23 37° 262° (W) 23:46:26 434.975-435.025
TIGRISAT 29 May 23:38:42 23:42:54 51° 99° (E) 23:47:03 435.000
ISS 29 May 23:44:21 23:46:24 15° 328° (NNW) 23:48:25 145.825
CUBEBUG 2 29 May 23:45:04 23:46:28 11° 271° (W) 23:47:31 437.445
CUBEBUG 1 29 May 23:53:27 23:57:46 70° 76° (ENE) 00:02:08 437.445
NANOSAT C BR1 29 May 23:54:15 23:58:05 32° 97° (E) 00:01:55 145.865
DANDE 29 May 23:58:55 00:05:23 35° 70° (ENE) 00:10:33 436.750
UNISAT 6 30 May 00:00:28 00:04:48 81° 284° (WNW) 00:09:04 437.425
QB50P2 30 May 00:04:27 00:08:34 46° 99° (E) 00:12:39 145.880/145.840
VELOX 1 30 May 00:04:40 00:08:50 40° 261° (W) 00:13:02 145.980
CUSAT 1 30 May 00:08:50 00:15:15 53° 76° (ENE) 00:20:06 437.405
DUCHIFAT 1 30 May 00:15:06 00:19:18 59° 100° (E) 00:23:28 145.980
POPSAT HIP 1 30 May 00:15:48 00:20:02 62° 100° (E) 00:24:14 437.405
GONETS M04 30 May 00:18:08 00:26:24 46° 77° (ENE) 00:34:42
ESTCUBE 1 30 May 00:19:54 00:24:13 48° 261° (W) 00:28:34 437.505/2401.250
SPROUT 30 May 00:20:24 00:24:18 34° 73° (ENE) 00:28:15 437.525
BUGSAT 1 30 May 00:23:48 00:27:57 50° 99° (E) 00:32:03 437.445
PCSat 30 May 00:24:31 00:29:49 62° 113° (ESE) 00:35:11 145.827
TISAT 1 30 May 00:31:17 00:35:03 33° 73° (ENE) 00:38:55 437.305
PHONESAT 2.4 30 May 00:31:32 00:33:32 15° 142° (SE) 00:35:38 2401.200-2431.200
AISAT 30 May 00:39:06 00:41:57 16° 267° (W) 00:44:39 437.250
ANTELSAT 30 May 00:44:36 00:48:08 24° 289° (WNW) 00:51:32 437.575/2403.000
QB50P1 30 May 00:59:45 01:03:41 36° 287° (WNW) 01:07:33 145.935-145.965
VERMONT LUNAR 30 May 01:00:19 01:03:34 73° 335° (NNW) 01:06:48 437.305
POLYITAN 1 30 May 01:03:41 01:07:30 32° 287° (WNW) 01:11:15 437.675
TIGRISAT 30 May 01:17:52 01:19:15 11° 292° (WNW) 01:20:20 435.000
ITUPSAT 1 30 May 01:19:11 01:22:16 18° 69° (ENE) 01:25:31 437.325
Cosmos 2499 30 May 01:24:09 01:28:18 17° 69° (ENE) 01:32:56 435.465 / 435.565
BEESAT 30 May 01:24:22 01:27:48 21° 70° (ENE) 01:31:23 436.000
O/OREOS (USA 219) 30 May 01:26:19 01:30:32 40° 67° (ENE) 01:34:45 437.305
NANOSAT C BR1 30 May 01:30:54 01:33:41 17° 290° (WNW) 01:36:18 145.865
SWISSCUBE 30 May 01:32:48 01:36:47 28° 71° (ENE) 01:40:51 437.505
QB50P2 30 May 01:42:16 01:44:06 12° 292° (WNW) 01:45:41 145.880/145.840
DANDE 30 May 01:42:25 01:48:25 30° 274° (W) 01:53:07 436.750
CUSAT 1 30 May 01:53:26 01:56:59 15° 278° (W) 01:59:49 437.405
SPROUT 30 May 01:57:47 02:00:31 16° 268° (W) 02:03:04 437.525
BEESAT 3 30 May 01:59:09 02:01:07 13° 49° (NE) 02:03:13 437.485
BUGSAT 1 30 May 02:01:33 02:03:01 11° 292° (WNW) 02:04:14 437.445
PHONESAT 2.4 30 May 02:07:51 02:11:21 86° 330° (NNW) 02:14:52 2401.200-2431.200
TISAT 1 30 May 02:08:13 02:10:57 16° 267° (W) 02:13:31 437.305
PCSat 30 May 02:10:15 02:13:44 17° 310° (NW) 02:17:02 145.827
KKS-1 30 May 02:14:51 02:15:45 11° 67° (ENE) 02:16:56 437.445
GONETS M04 30 May 02:15:27 02:23:02 33° 273° (W) 02:30:18
Gurwin Techsat 1B 30 May 02:26:06 02:27:10 11° 89° (E) 02:28:41 435.225
SO-50 30 May 02:33:58 02:38:30 60° 116° (ESE) 02:43:15 436.795
VERMONT LUNAR 30 May 02:38:22 02:41:04 24° 351° (N) 02:43:46 437.305
Oscar 19 30 May 02:43:56 02:49:06 75° 103° (ESE) 02:54:12 437.125/150
BEESAT 2 30 May 02:51:02 02:54:51 38° 57° (ENE) 02:58:38 435.950
ITUPSAT 1 30 May 02:55:27 02:59:54 38° 262° (W) 03:04:19 437.325
BEESAT 30 May 03:01:12 03:05:28 32° 263° (W) 03:09:43 436.000
AIST 2 30 May 03:03:10 03:05:34 15° 49° (NE) 03:08:05 435.215
ITAMSAT 1 30 May 03:05:40 03:10:17 32° 97° (E) 03:14:57 435.822/435.867
O/OREOS (USA 219) 30 May 03:07:11 03:09:38 14° 259° (W) 03:11:50 437.305
STARS 30 May 03:07:53 03:11:34 27° 72° (ENE) 03:15:21 437.465
SWISSCUBE 30 May 03:10:46 03:14:38 24° 265° (W) 03:18:23 437.505
Cosmos 2499 30 May 03:15:08 03:22:07 66° 266° (W) 03:29:20 435.465 / 435.565
BEESAT 3 30 May 03:35:30 03:39:24 46° 245° (WSW) 03:43:13 437.485
PHONESAT 2.4 30 May 03:46:42 03:49:46 27° 350° (N) 03:52:48 2401.200-2431.200
KKS-1 30 May 03:47:31 03:51:56 59° 260° (W) 03:56:23 437.445
Gurwin Techsat 1B 30 May 04:02:27 04:07:45 71° 285° (WNW) 04:13:02 435.225
MOZHAYETS 4 30 May 04:06:27 04:08:43 14° 69° (ENE) 04:11:12
VERMONT LUNAR 30 May 04:16:10 04:18:50 24° 8° (N) 04:21:31 437.305
SO-50 30 May 04:16:45 04:19:32 15° 314° (NW) 04:22:11 436.795
JAS-2 30 May 04:16:50 04:21:02 25° 96° (E) 04:25:36 435.910
Oscar 19 30 May 04:26:28 04:27:53 11° 295° (WNW) 04:28:56 437.125/150
BEESAT 2 30 May 04:30:26 04:32:37 14° 250° (WSW) 04:34:37 435.950
HORYU 2 30 May 04:36:31 04:40:40 39° 99° (E) 04:44:48 437.375
ISS 30 May 04:39:04 04:40:03 11° 28° (NNE) 04:41:06 145.825
AIST 2 30 May 04:40:25 04:44:24 43° 246° (WSW) 04:48:18 435.215
STARS 30 May 04:44:32 04:48:01 22° 265° (W) 04:51:24 437.465
ITAMSAT 1 30 May 04:45:22 04:49:40 25° 290° (WNW) 04:53:49 435.822/435.867
AO-7 30 May 05:02:25 05:10:35 55° 102° (ESE) 05:18:46 29.400- 29.500
PHONESAT 2.4 30 May 05:25:31 05:28:28 25° 7° (N) 05:31:25 2401.200-2431.200
MOZHAYETS 4 30 May 05:41:13 05:45:37 45° 262° (W) 05:49:59
VERMONT LUNAR 30 May 05:53:09 05:56:20 72° 23° (NNE) 05:59:31 437.305
CUBESAT XI-V 30 May 05:54:18 05:56:58 16° 69° (ENE) 05:59:50 437.345
JAS-2 30 May 06:01:41 06:06:14 30° 288° (WNW) 06:10:55 435.910
Cosmos 2491 30 May 06:03:59 06:11:28 31° 72° (ENE) 06:19:08 435.465 / 435.565
ISS 30 May 06:13:37 06:16:54 87° 216° (SW) 06:20:09 145.825
HORYU 2 30 May 06:14:21 06:17:01 15° 291° (WNW) 06:19:29 437.375
YUBILEINY 30 May 06:49:12 06:56:22 31° 87° (E) 07:03:45 435.215
RS-15 30 May 06:49:44 06:53:11 13° 101° (ESE) 06:57:49 29.354- 29.394
AO-7 30 May 06:56:00 07:03:00 30° 297° (WNW) 07:09:46 29.400- 29.500
STRAND 1 30 May 06:57:00 07:01:28 33° 71° (ENE) 07:06:03 437.568
PHONESAT 2.4 30 May 07:03:29 07:06:56 67° 22° (NNE) 07:10:23 2401.200-2431.200
PRISM 30 May 07:22:07 07:26:09 69° 76° (ENE) 07:30:14 437.425
CUTE-I 30 May 07:22:43 07:28:00 57° 100° (E) 07:33:17 437.470
CUBESAT XI-V 30 May 07:29:46 07:34:07 40° 262° (W) 07:38:27 437.345
M-CUBED/EXP-1 PRIME 30 May 07:30:09 07:34:10 45° 71° (ENE) 07:37:54 437.505
VERMONT LUNAR 30 May 07:31:13 07:33:16 16° 217° (SW) 07:35:15 437.305
AUBIESAT-1 30 May 07:34:58 07:38:55 44° 71° (ENE) 07:42:36 437.475
Cubesat XI-IV 30 May 07:44:20 07:49:44 87° 286° (WNW) 07:55:08 437.490
Cosmos 2491 30 May 08:00:16 08:08:38 48° 270° (W) 08:16:50 435.465 / 435.565
AIST 1 30 May 08:04:08 08:08:31 68° 82° (E) 08:12:54
BRITE-PL 30 May 08:17:46 08:21:23 18° 90° (E) 08:25:04 437.365/2234.400
STRAND 1 30 May 08:36:42 08:40:45 23° 265° (W) 08:44:40 437.568
PHONESAT 2.4 30 May 08:42:14 08:44:51 20° 216° (SW) 08:47:23 2401.200-2431.200
YUBILEINY 30 May 08:44:28 08:52:54 49° 282° (WNW) 09:01:14 435.215
DOVE 4 30 May 08:47:06 08:48:42 12° 88° (E) 08:50:35 437.250
RS-15 30 May 08:53:19 09:04:08 78° 115° (ESE) 09:15:13 29.354- 29.394
CUTE-I 30 May 09:04:27 09:07:40 16° 294° (WNW) 09:10:37 437.470
M-CUBED/EXP-1 PRIME 30 May 09:07:45 09:09:09 11° 262° (W) 09:10:15 437.505
AUBIESAT-1 30 May 09:12:26 09:13:49 11° 262° (W) 09:14:56 437.475
JUGNU 30 May 09:14:56 09:18:37 17° 169° (S) 09:22:21 437.505
PCSat 30 May 09:17:26 09:21:28 21° 53° (NE) 09:25:37 145.827
CANX-2 30 May 09:26:07 09:29:55 33° 97° (E) 09:33:45 2200.000
HO-68 30 May 09:27:22 09:34:01 42° 99° (E) 09:40:43 435.675
CUTE 1.7 + AOD 2 30 May 09:29:07 09:32:53 32° 97° (E) 09:36:42 437.475
CINEMA 3 30 May 09:34:29 09:37:27 18° 91° (E) 09:40:30 145.822/145.860
Cosmos 2504 30 May 09:35:14 09:42:35 37° 90° (E) 09:49:39 435.465 / 435.565
GOMX 1 30 May 09:38:49 09:44:05 79° 102° (ESE) 09:48:59 467.674
SEEDS 30 May 09:45:49 09:49:47 42° 98° (E) 09:53:46 437.485
Oscar 11 30 May 09:51:54 09:54:00 14° 92° (E) 09:56:20 145.826/435.025
COMPASS 1 30 May 09:53:12 09:57:06 40° 98° (E) 10:01:02 437.405
BRITE-PL 30 May 09:54:54 10:00:13 46° 287° (WNW) 10:05:09 437.365/2234.400
CUBEBUG 2 30 May 10:01:47 10:04:25 16° 92° (E) 10:07:11 437.445
AAUSAT CUBESAT 2 30 May 10:02:08 10:06:05 44° 99° (E) 10:10:04 437.432
ANTELSAT 30 May 10:04:01 10:06:20 14° 69° (ENE) 10:08:53 437.575/2403.000
DELFI C3 30 May 10:06:31 10:08:28 14° 92° (E) 10:10:37 145.870
DOVE 4 30 May 10:22:07 10:26:59 56° 286° (WNW) 10:31:33 437.250
TIGRISAT 30 May 10:33:16 10:37:15 29° 72° (ENE) 10:41:17 435.000
SRMSAT 30 May 10:39:26 10:42:42 15° 167° (SSE) 10:46:03 437.500
UWE-3 30 May 10:40:15 10:44:15 37° 97° (E) 10:48:10 435.000/436.395/437.385
FUNcube-1 30 May 10:40:35 10:44:12 28° 96° (E) 10:47:49 145.935
NANOSAT C BR1 30 May 10:43:56 10:46:20 15° 70° (ENE) 10:48:56 145.865
HUMSAT D 30 May 10:47:50 10:49:54 14° 92° (E) 10:52:09 437.325/437.525
QB50P2 30 May 10:53:56 10:57:06 21° 71° (ENE) 11:00:23 145.880/145.840
UNISAT 6 30 May 10:54:45 10:59:18 53° 75° (ENE) 11:03:50 437.425
PCSat 30 May 10:59:58 11:05:08 45° 249° (WSW) 11:10:14 145.827
JUGNU 30 May 11:02:33 11:07:02 22° 179° (S) 11:11:31 437.505
CANX-2 30 May 11:02:59 11:05:36 16° 290° (WNW) 11:08:03 2200.000
DUCHIFAT 1 30 May 11:03:43 11:07:12 26° 72° (ENE) 11:10:47 145.980
POPSAT HIP 1 30 May 11:04:46 11:08:21 27° 72° (ENE) 11:12:02 437.405
CUTE 1.7 + AOD 2 30 May 11:05:53 11:08:35 16° 290° (WNW) 11:11:06 437.475
RS-15 30 May 11:08:41 11:17:51 28° 319° (NW) 11:26:54 29.354- 29.394
SO-50 30 May 11:10:13 11:13:49 20° 49° (NE) 11:17:30 436.795
BUGSAT 1 30 May 11:10:30 11:13:30 20° 71° (ENE) 11:16:40 437.445
CINEMA 3 30 May 11:10:40 11:14:48 33° 288° (WNW) 11:18:43 145.822/145.860
HO-68 30 May 11:15:23 11:21:35 32° 293° (WNW) 11:27:37 435.675
UKube-1 30 May 11:16:34 11:20:25 31° 97° (E) 11:24:17 .
GOMX 1 30 May 11:20:26 11:21:29 10° 296° (WNW) 11:22:10 467.674
ZACube-1 30 May 11:22:15 11:26:32 83° 283° (WNW) 11:30:42 437.345
SEEDS 30 May 11:23:21 11:25:15 13° 291° (WNW) 11:26:57 437.485
Oscar 11 30 May 11:26:23 11:30:24 38° 286° (WNW) 11:34:22 145.826/435.025
Cosmos 2504 30 May 11:28:18 11:35:55 37° 284° (WNW) 11:42:58 435.465 / 435.565
CUSAT 1 30 May 11:29:28 11:32:08 13° 81° (E) 11:35:34 437.405
COMPASS 1 30 May 11:30:30 11:32:28 13° 291° (WNW) 11:34:14 437.405
DX 1 30 May 11:30:32 11:34:48 50° 100° (E) 11:39:05 434.975-435.025
CUBEBUG 2 30 May 11:37:21 11:41:16 32° 287° (WNW) 11:45:01 437.445
ANTELSAT 30 May 11:38:14 11:42:47 48° 261° (W) 11:47:16 437.575/2403.000
AAUSAT CUBESAT 2 30 May 11:39:45 11:41:21 12° 291° (WNW) 11:42:43 437.432
DELFI C3 30 May 11:40:04 11:43:43 33° 286° (WNW) 11:47:20 145.870
CUBEBUG 1 30 May 11:47:34 11:50:34 18° 93° (E) 11:53:43 437.445
QB50P1 30 May 11:47:36 11:51:53 87° 257° (WSW) 11:56:13 145.935-145.965
POLYITAN 1 30 May 11:51:42 11:56:00 76° 258° (WSW) 12:00:20 437.675
VELOX 1 30 May 11:59:07 12:03:29 52° 100° (E) 12:07:50 145.980
TIGRISAT 30 May 12:10:17 12:13:59 22° 265° (W) 12:17:34 435.000
ESTCUBE 1 30 May 12:16:38 12:21:01 48° 99° (E) 12:25:25 437.505/2401.250
FUNcube-1 30 May 12:17:21 12:20:22 19° 290° (WNW) 12:23:14 145.935
NANOSAT C BR1 30 May 12:17:57 12:21:54 36° 262° (W) 12:25:52 145.865
UWE-3 30 May 12:18:03 12:20:29 14° 291° (WNW) 12:22:42 435.000/436.395/437.385
HUMSAT D 30 May 12:22:03 12:25:49 34° 286° (WNW) 12:29:31 437.325/437.525
50 SAT 30 May 12:25:43 12:29:30 56° 284° (WNW) 12:33:15 437.505
SRMSAT 30 May 12:26:51 12:31:15 22° 177° (S) 12:35:40 437.500
QB50P2 30 May 12:29:13 12:32:52 26° 264° (W) 12:36:27 145.880/145.840
AISAT 30 May 12:32:07 12:36:33 60° 285° (WNW) 12:40:55 437.250
UNISAT 6 30 May 12:34:29 12:36:25 12° 269° (W) 12:38:03 437.425
DUCHIFAT 1 30 May 12:39:42 12:43:00 21° 266° (W) 12:46:12 145.980
POPSAT HIP 1 30 May 12:41:01 12:44:15 20° 266° (W) 12:47:21 437.405
BUGSAT 1 30 May 12:45:20 12:48:51 25° 265° (W) 12:52:20 437.445
SO-50 30 May 12:49:54 12:54:37 44° 246° (WSW) 12:59:11 436.795
JUGNU 30 May 12:51:23 12:55:27 19° 189° (S) 12:59:29 437.505
UKube-1 30 May 12:53:16 12:56:21 19° 290° (WNW) 12:59:17 .
DANDE 30 May 13:00:58 13:07:53 56° 92° (E) 13:16:06 436.750
CUSAT 1 30 May 13:06:15 13:13:37 79° 96° (E) 13:21:59 437.405
DX 1 30 May 13:08:52 13:10:40 12° 292° (WNW) 13:12:14 434.975-435.025
GONETS M04 30 May 13:13:11 13:21:46 61° 92° (E) 13:30:27
CUBEBUG 1 30 May 13:23:02 13:27:01 32° 287° (WNW) 13:30:54 437.445
RS-15 30 May 13:35:36 13:36:01 10° 353° (N) 13:36:13 29.354- 29.394
VELOX 1 30 May 13:37:45 13:39:38 12° 292° (WNW) 13:41:16 145.980
Gurwin Techsat 1B 30 May 13:42:58 13:45:03 13° 66° (ENE) 13:47:27 435.225
SPROUT 30 May 13:46:46 13:51:04 64° 284° (WNW) 13:55:19 437.525
TISAT 1 30 May 13:55:05 13:59:21 73° 284° (WNW) 14:03:34 437.305
ESTCUBE 1 30 May 13:55:14 13:57:32 13° 292° (WNW) 13:59:35 437.505/2401.250
Oscar 19 30 May 13:56:23 14:01:32 71° 76° (ENE) 14:06:44 437.125/150
Cosmos 2499 30 May 13:56:44 14:01:12 17° 86° (E) 14:05:58 435.465 / 435.565
SRMSAT 30 May 14:15:37 14:19:50 20° 187° (S) 14:24:00 437.500
ITAMSAT 1 30 May 14:19:40 14:24:10 32° 71° (ENE) 14:28:46 435.822/435.867
JUGNU 30 May 14:43:02 14:43:50 10° 197° (SSW) 14:44:28 437.505
DANDE 30 May 14:45:24 14:51:42 28° 292° (WNW) 14:58:30 436.750
CUSAT 1 30 May 14:51:53 14:57:24 20° 295° (WNW) 15:02:49 437.405
ITUPSAT 1 30 May 14:59:49 15:04:37 76° 102° (ESE) 15:09:26 437.325
BEESAT 30 May 15:04:59 15:09:47 88° 103° (ESE) 15:14:35 436.000
GONETS M04 30 May 15:12:10 15:19:15 25° 290° (WNW) 15:26:00
SWISSCUBE 30 May 15:14:10 15:18:56 67° 284° (WNW) 15:23:41 437.505
Gurwin Techsat 1B 30 May 15:19:15 15:24:31 68° 258° (WSW) 15:29:50 435.225
HORYU 2 30 May 15:31:14 15:34:40 23° 71° (ENE) 15:38:13 437.375
O/OREOS (USA 219) 30 May 15:33:57 15:38:28 75° 290° (WNW) 15:42:58 437.305
Oscar 19 30 May 15:40:19 15:41:29 10° 271° (W) 15:42:13 437.125/150
KKS-1 30 May 15:43:03 15:47:10 36° 98° (E) 15:51:16 437.445
Cosmos 2499 30 May 15:45:40 15:53:49 73° 278° (W) 16:01:22 435.465 / 435.565
RS-15 30 May 15:48:32 15:55:28 18° 30° (NNE) 16:03:06 29.354- 29.394
AO-7 30 May 15:56:41 16:04:33 52° 68° (ENE) 16:12:33 29.400- 29.500
ITAMSAT 1 30 May 15:59:29 16:03:42 24° 265° (W) 16:07:50 435.822/435.867
SRMSAT 30 May 16:06:12 16:08:21 12° 196° (SSW) 16:10:24 437.500
JAS-2 30 May 16:07:53 16:14:28 64° 75° (ENE) 16:20:20 435.910
STARS 30 May 16:37:17 16:41:43 85° 283° (WNW) 16:46:07 437.465
BEESAT 2 30 May 16:41:28 16:44:26 20° 111° (ESE) 16:47:32 435.950
HORYU 2 30 May 17:07:23 17:11:12 26° 264° (W) 17:14:56 437.375
KKS-1 30 May 17:20:35 17:23:32 17° 291° (WNW) 17:26:18 437.445
BEESAT 3 30 May 17:23:50 17:27:53 87° 118° (ESE) 17:32:00 437.485
Cubesat XI-IV 30 May 17:27:00 17:27:58 11° 64° (ENE) 17:29:17 437.490
MOZHAYETS 4 30 May 17:40:18 17:44:48 57° 100° (E) 17:49:19
AO-7 30 May 17:50:34 17:57:40 30° 264° (W) 18:04:33 29.400- 29.500
JAS-2 30 May 17:55:53 17:59:53 16° 267° (W) 18:03:17 435.910
RS-15 30 May 17:59:33 18:11:06 62° 56° (ENE) 18:23:09 29.354- 29.394
BEESAT 2 30 May 18:18:47 18:22:22 28° 305° (NW) 18:25:56 435.950
AIST 2 30 May 18:33:47 18:38:01 75° 299° (WNW) 18:42:18 435.215
CUTE-I 30 May 18:40:24 18:45:36 61° 74° (ENE) 18:50:52 437.470
YUBILEINY 30 May 18:59:22 19:08:03 70° 82° (E) 19:16:43 435.215
Cosmos 2491 30 May 18:59:28 19:07:25 42° 89° (E) 19:15:33 435.465 / 435.565
Cubesat XI-IV 30 May 19:02:09 19:07:28 81° 256° (WSW) 19:12:49 437.490
PRISM 30 May 19:10:13 19:12:12 13° 92° (E) 19:14:24 437.425
STRAND 1 30 May 19:12:48 19:15:45 16° 92° (E) 19:18:57 437.568
MOZHAYETS 4 30 May 19:19:59 19:21:36 11° 292° (WNW) 19:22:57
BRITE-PL 30 May 19:24:57 19:27:31 14° 66° (ENE) 19:30:27 437.365/2234.400
CUBESAT XI-V 30 May 19:30:15 19:34:58 68° 100° (E) 19:39:39 437.345
